• In Hungary
  • List of Countries
  • For 7 days
  • Water Temperature
  • Satellite Maps
  • Weather Map
  • News
  • Weather Widgets
  • user-avatar
    Login

    Hourly Weather Aleksandrovo

    Today, 24 October, Wednesday

    Time Temperature Precipitation Wind Pressure Humidity
    00:00 +5°C° 0 mm 5 mps 731 mmHg 78%
    01:00 +5°C° 0.1 mm 5 mps 730 mmHg 78%
    02:00 +5°C° 0.1 mm 5 mps 730 mmHg 79%
    03:00 +5°C° 0.1 mm 5 mps 729 mmHg 80%
    04:00 +5°C° 0.2 mm 5 mps 728 mmHg 80%
    05:00 +5°C° 0.2 mm 5 mps 728 mmHg 81%
    06:00 +5°C° 0.2 mm 5 mps 727 mmHg 81%
    07:00 +4°C° 0.3 mm 6 mps 727 mmHg 79%
    08:00 +4°C° 0.3 mm 6 mps 726 mmHg 78%
    09:00 +4°C° 0.3 mm 6 mps 726 mmHg 76%
    10:00 +5°C° 0.2 mm 6 mps 725 mmHg 76%
    11:00 +5°C° 0.2 mm 7 mps 725 mmHg 76%
    12:00 +5°C° 0.2 mm 7 mps 724 mmHg 75%
    13:00 +5°C° 0.7 mm 6 mps 724 mmHg 79%
    14:00 +6°C° 0.7 mm 5 mps 723 mmHg 82%
    15:00 +6°C° 0.7 mm 5 mps 723 mmHg 85%
    16:00 +6°C° 0.3 mm 4 mps 722 mmHg 87%
    17:00 +6°C° 0.3 mm 4 mps 722 mmHg 89%
    18:00 +7°C° 0.3 mm 3 mps 721 mmHg 91%
    19:00 +7°C° 0.3 mm 3 mps 721 mmHg 91%
    20:00 +5°C° 0.3 mm 3 mps 721 mmHg 91%
    21:00 +5°C° 0.3 mm 4 mps 721 mmHg 92%
    22:00 +5°C° 0 mm 4 mps 722 mmHg 91%
    23:00 +5°C° 0 mm 4 mps 722 mmHg 91%

    Tomorrow, 25 October, Thursday

    Time Temperature Precipitation Wind Pressure Humidity
    00:00 +5°C° 0 mm 5 mps 722 mmHg 91%
    01:00 +4°C° 0 mm 4 mps 722 mmHg 92%
    02:00 +4°C° 0 mm 4 mps 722 mmHg 93%
    03:00 +4°C° 0 mm 3 mps 722 mmHg 94%
    04:00 +4°C° 0.1 mm 3 mps 722 mmHg 95%
    05:00 +4°C° 0.1 mm 2 mps 721 mmHg 95%
    06:00 +4°C° 0.1 mm 2 mps 721 mmHg 96%
    07:00 +5°C° 0.1 mm 2 mps 721 mmHg 95%
    08:00 +5°C° 0.1 mm 2 mps 721 mmHg 94%
    09:00 +6°C° 0.1 mm 1 mps 721 mmHg 93%
    10:00 +5°C° 0.3 mm 2 mps 721 mmHg 90%
    11:00 +6°C° 0.3 mm 2 mps 721 mmHg 87%
    12:00 +6°C° 0.3 mm 2 mps 721 mmHg 85%
    13:00 +5°C° 0.3 mm 3 mps 721 mmHg 83%
    14:00 +5°C° 0.3 mm 3 mps 720 mmHg 82%
    15:00 +5°C° 0.3 mm 4 mps 720 mmHg 81%
    16:00 +5°C° 0.1 mm 4 mps 721 mmHg 82%
    17:00 +4°C° 0.1 mm 4 mps 721 mmHg 84%
    18:00 +4°C° 0.1 mm 4 mps 721 mmHg 85%
    19:00 +3°C° 0.2 mm 5 mps 722 mmHg 84%
    20:00 +3°C° 0.2 mm 6 mps 722 mmHg 83%
    21:00 +2°C° 0.2 mm 7 mps 723 mmHg 82%
    22:00 +2°C° 0.2 mm 7 mps 723 mmHg 81%
    23:00 +2°C° 0.2 mm 7 mps 724 mmHg 80%

    Day after tomorrow, 26 October, Friday

    Time Temperature Precipitation Wind Pressure Humidity
    00:00 0°C° 0.2 mm 7 mps 725 mmHg 79%
    01:00 +1°C° 0.1 mm 6 mps 725 mmHg 78%
    02:00 -1°C° 0.1 mm 6 mps 726 mmHg 77%
    03:00 -1°C° 0.1 mm 6 mps 727 mmHg 77%
    04:00 -1°C° 0 mm 5 mps 727 mmHg 77%
    05:00 -1°C° 0 mm 5 mps 728 mmHg 78%
    06:00 -1°C° 0 mm 4 mps 728 mmHg 79%
    07:00 -1°C° 0 mm 4 mps 729 mmHg 79%
    08:00 -1°C° 0 mm 5 mps 730 mmHg 78%
    09:00 0°C° 0 mm 5 mps 730 mmHg 78%
    10:00 +1°C° 0 mm 5 mps 731 mmHg 74%
    11:00 +2°C° 0 mm 6 mps 731 mmHg 71%
    12:00 +3°C° 0 mm 6 mps 731 mmHg 67%
    13:00 +3°C° 0 mm 6 mps 731 mmHg 66%
    14:00 +3°C° 0 mm 6 mps 732 mmHg 64%
    15:00 +3°C° 0 mm 6 mps 732 mmHg 63%
    16:00 +2°C° 0 mm 5 mps 732 mmHg 67%
    17:00 +2°C° 0 mm 5 mps 732 mmHg 70%
    18:00 +1°C° 0 mm 4 mps 733 mmHg 74%
    19:00 +1°C° 0.1 mm 5 mps 733 mmHg 76%
    20:00 +1°C° 0.1 mm 5 mps 733 mmHg 78%
    21:00 +1°C° 0.1 mm 5 mps 733 mmHg 80%
    22:00 +1°C° 0 mm 5 mps 734 mmHg 83%
    23:00 0°C° 0 mm 4 mps 734 mmHg 86%

    27 October, Saturday

    Time Temperature Precipitation Wind Pressure Humidity
    00:00 0°C° 0 mm 4 mps 734 mmHg 89%
    01:00 0°C° 0 mm 4 mps 735 mmHg 90%
    02:00 -1°C° 0 mm 4 mps 735 mmHg 91%
    03:00 -1°C° 0 mm 4 mps 736 mmHg 92%
    04:00 -1°C° 0 mm 4 mps 736 mmHg 92%
    05:00 -1°C° 0 mm 4 mps 736 mmHg 92%
    06:00 -1°C° 0 mm 4 mps 736 mmHg 92%
    07:00 -1°C° 0 mm 5 mps 736 mmHg 89%
    08:00 0°C° 0 mm 5 mps 736 mmHg 86%
    09:00 +1°C° 0 mm 6 mps 736 mmHg 83%
    10:00 +2°C° 0.2 mm 7 mps 736 mmHg 80%
    11:00 +2°C° 0.2 mm 8 mps 735 mmHg 78%
    12:00 +2°C° 0.2 mm 8 mps 734 mmHg 75%
    13:00 +3°C° 0.7 mm 9 mps 733 mmHg 76%
    14:00 +3°C° 0.7 mm 9 mps 733 mmHg 77%
    15:00 +5°C° 0.7 mm 10 mps 732 mmHg 78%
    16:00 +5°C° 1 mm 10 mps 731 mmHg 79%
    17:00 +6°C° 1 mm 10 mps 731 mmHg 81%
    18:00 +6°C° 1 mm 10 mps 731 mmHg 82%
    19:00 +5°C° 0.1 mm 9 mps 731 mmHg 80%
    20:00 +4°C° 0.1 mm 8 mps 731 mmHg 77%
    21:00 +4°C° 0.1 mm 7 mps 732 mmHg 75%
    22:00 +2°C° 0 mm 8 mps 732 mmHg 75%
    23:00 +2°C° 0 mm 8 mps 732 mmHg 76%

    28 October, Sunday

    Time Temperature Precipitation Wind Pressure Humidity
    00:00 +2°C° 0 mm 9 mps 733 mmHg 76%
    01:00 +1°C° 0 mm 9 mps 734 mmHg 76%
    02:00 +1°C° 0 mm 9 mps 734 mmHg 75%
    03:00 0°C° 0 mm 9 mps 735 mmHg 75%
    04:00 0°C° 0 mm 8 mps 736 mmHg 75%
    05:00 -1°C° 0 mm 8 mps 737 mmHg 76%
    06:00 -1°C° 0 mm 8 mps 738 mmHg 77%
    07:00 -1°C° 0 mm 8 mps 739 mmHg 76%
    08:00 -1°C° 0 mm 8 mps 740 mmHg 75%
    09:00 -1°C° 0 mm 8 mps 741 mmHg 75%
    10:00 -1°C° 0 mm 7 mps 742 mmHg 72%
    11:00 +1°C° 0 mm 6 mps 743 mmHg 70%
    12:00 +2°C° 0 mm 6 mps 744 mmHg 68%
    13:00 +2°C° 0 mm 5 mps 744 mmHg 67%
    14:00 +2°C° 0 mm 5 mps 745 mmHg 66%
    15:00 +2°C° 0 mm 5 mps 745 mmHg 66%
    16:00 +1°C° 0 mm 4 mps 746 mmHg 70%
    17:00 +1°C° 0 mm 3 mps 747 mmHg 75%
    18:00 +2°C° 0 mm 2 mps 747 mmHg 79%
    19:00 +1°C° 0 mm 2 mps 748 mmHg 81%
    20:00 +1°C° 0 mm 2 mps 748 mmHg 82%
    21:00 +1°C° 0 mm 2 mps 749 mmHg 84%
    22:00 -1°C° 0 mm 2 mps 749 mmHg 85%
    23:00 -1°C° 0 mm 2 mps 750 mmHg 86%

    29 October, Monday

    Time Temperature Precipitation Wind Pressure Humidity
    00:00 +1°C° 0 mm 1 mps 750 mmHg 87%
    01:00 +1°C° 0 mm 1 mps 751 mmHg 85%
    02:00 +1°C° 0 mm 1 mps 751 mmHg 84%
    03:00 +1°C° 0 mm 1 mps 751 mmHg 83%
    04:00 +1°C° 0 mm 1 mps 751 mmHg 82%
    05:00 +2°C° 0 mm 1 mps 752 mmHg 80%
    06:00 +2°C° 0 mm 1 mps 752 mmHg 79%
    07:00 +2°C° 0.1 mm 1 mps 752 mmHg 78%
    08:00 +2°C° 0.1 mm 1 mps 752 mmHg 77%
    09:00 +2°C° 0.1 mm 1 mps 753 mmHg 76%
    10:00 +2°C° 0.1 mm 2 mps 753 mmHg 77%
    11:00 +2°C° 0.1 mm 2 mps 752 mmHg 77%
    12:00 +2°C° 0.1 mm 2 mps 752 mmHg 77%
    13:00 +1°C° 0.2 mm 3 mps 752 mmHg 79%
    14:00 +1°C° 0.2 mm 3 mps 752 mmHg 81%
    15:00 +1°C° 0.2 mm 3 mps 752 mmHg 83%
    16:00 0°C° 0.3 mm 4 mps 752 mmHg 85%
    17:00 -1°C° 0.3 mm 4 mps 751 mmHg 87%
    18:00 -1°C° 0.3 mm 5 mps 751 mmHg 89%
    19:00 -1°C° 0.2 mm 5 mps 751 mmHg 89%
    20:00 -1°C° 0.2 mm 5 mps 751 mmHg 89%
    21:00 -2°C° 0.2 mm 6 mps 750 mmHg 90%
    22:00 -2°C° 0.1 mm 6 mps 750 mmHg 90%
    23:00 -1°C° 0.1 mm 5 mps 750 mmHg 91%

    30 October, Tuesday

    Time Temperature Precipitation Wind Pressure Humidity
    00:00 -1°C° 0.1 mm 5 mps 749 mmHg 92%
    01:00 -1°C° 0.1 mm 5 mps 749 mmHg 92%
    02:00 -1°C° 0.1 mm 5 mps 749 mmHg 93%
    03:00 0°C° 0.1 mm 5 mps 748 mmHg 93%
    04:00 0°C° 0.1 mm 5 mps 748 mmHg 94%
    05:00 0°C° 0.1 mm 5 mps 748 mmHg 94%
    06:00 0°C° 0.1 mm 5 mps 748 mmHg 94%
    07:00 0°C° 0 mm 5 mps 748 mmHg 94%
    08:00 0°C° 0 mm 5 mps 748 mmHg 94%
    09:00 0°C° 0 mm 5 mps 748 mmHg 94%
    10:00 +1°C° 0 mm 5 mps 748 mmHg 93%
    11:00 +1°C° 0 mm 6 mps 748 mmHg 92%
    12:00 +2°C° 0 mm 6 mps 748 mmHg 91%
    13:00 +2°C° 0.1 mm 6 mps 748 mmHg 90%
    14:00 +2°C° 0.1 mm 6 mps 749 mmHg 90%
    15:00 +2°C° 0.1 mm 6 mps 749 mmHg 90%
    16:00 +2°C° 0 mm 6 mps 749 mmHg 90%
    17:00 +2°C° 0 mm 6 mps 749 mmHg 90%
    18:00 +1°C° 0 mm 6 mps 750 mmHg 90%
    19:00 +1°C° 0 mm 6 mps 750 mmHg 90%
    20:00 +1°C° 0 mm 6 mps 750 mmHg 89%
    21:00 +1°C° 0 mm 6 mps 751 mmHg 89%
    22:00 +1°C° 0 mm 6 mps 751 mmHg 89%
    23:00 -1°C° 0 mm 7 mps 751 mmHg 89%
    Show more